Location: Pine Mountain Observatory
(43.7910°N, 120.9377°W)
Time: 08:57:54
(UTC-08:00)

APEX - Visible Passes

Search period start: 16 December 2017 00:00
Search period end: 26 December 2017 00:00
Orbit: 333 x 1177 km, 69.9° (Epoch: 16 December)

Date Brightness Start Highest point End Pass type
(mag) Time Alt. Az. Time Alt. Az. Time Alt. Az.
16 Dec 3.3 05:58:09 10° SSW 06:01:29 75° ESE 06:05:45 10° NNE visible
17 Dec 4.8 05:17:17 10° S 05:20:22 34° ESE 05:24:10 10° NE visible
18 Dec 6.0 04:37:32 12° SE 04:39:25 17° E 04:42:04 10° ENE visible
18 Dec 3.9 06:17:49 10° WSW 06:21:09 35° NW 06:25:19 10° NNE visible
19 Dec 3.1 05:38:46 49° SW 05:39:39 70° WNW 05:44:08 10° NNE visible
20 Dec 4.4 04:59:26 41° ENE 04:59:26 41° ENE 05:02:43 10° NNE visible
20 Dec 5.1 06:39:29 13° WNW 06:41:17 16° NW 06:44:15 10° N visible
21 Dec 6.1 04:19:49 16° NE 04:19:49 16° NE 04:20:58 10° NE visible
21 Dec 4.5 05:59:50 26° NW 05:59:50 26° NW 06:03:28 10° N visible
22 Dec 5.0 05:20:00 25° N 05:20:00 25° N 05:22:23 10° NNE visible
23 Dec 6.0 04:40:01 16° NNE 04:40:01 16° NNE 04:41:05 10° NNE visible
23 Dec 5.5 06:20:01 13° NNW 06:20:01 13° NNW 06:22:04 10° N visible
24 Dec 5.7 05:39:56 16° N 05:39:56 16° N 05:41:31 10° N visible
25 Dec 6.1 04:59:46 13° N 04:59:46 13° N 05:00:32 10° NNE visible
